Ionia, MI

10:04 PM EDT on October 17, 2018 (GMT -0400)
Ionia

Weather History for KY70 - September, 2015

Change the Weather History Date:

Tuesday, September 8, 2015

  Actual Average (KGRR) Record (KGRR)
Temperature  
Mean Temperature 76 °F -  
Max Temperature 85 °F 76 °F 95 °F (1960)
Min Temperature 68 °F 54 °F 36 °F (1951)
Cooling Degree Days 12    
Growing Degree Days 26 (Base 50)    
Moisture  
Dew Point 70 °F    
Average Humidity 88    
Maximum Humidity 100    
Minimum Humidity 59    
Precipitation  
Precipitation 1.41 in - - ()
Sea Level Pressure  
Sea Level Pressure 29.88 in    
Wind  
Wind Speed 6 mph (SW)    
Max Wind Speed 37 mph    
Max Gust Speed 44 mph    
Visibility 8 miles    
Events Rain    
Averages and records for this station are not official NWS values.
T = Trace of Precipitation, MM = Missing Value Source: NWS Daily Summary

Daily Weather History Graph

Daily Weather History Graph

Search for Another Location

Airport or City:

Astronomy

Sep. 08, 2015 Rise Set
Actual Time 7:12 AM EDT 8:03 PM EDT
Civil Twilight 6:43 AM EDT 8:31 PM EDT
Nautical Twilight 6:09 AM EDT 9:05 PM EDT
Astronomical Twilight 5:33 AM EDT 9:41 PM EDT
Moon 2:48 AM EDT (9/8) 5:25 PM EDT (9/8)
Length of Visible Light 13h 48m
Length of Day
12h 51m
Waning Crescent, 19% of the Moon is Illuminated
Sep 8
Waning Crescent
Sep 13
New
Sep 21
First Quarter
Sep 27
Full
Oct 4
Last Quarter

Hourly Weather History & Observations

Time (EDT) Temp. Heat Index Dew Point Humidity Pressure Visibility Wind Dir Wind Speed Gust Speed Precip Events Conditions
12:13 AM 72.5 °F - 70.9 °F 95% 29.98 in 7.0 mi Calm Calm - N/A   Mostly Cloudy
12:34 AM 73.6 °F - 71.6 °F 93% 29.97 in 10.0 mi Calm Calm - N/A   Mostly Cloudy
12:57 AM 72.5 °F - 70.5 °F 93% 29.97 in 7.0 mi Calm Calm - N/A   Clear
1:14 AM 71.6 °F - 70.7 °F 97% 29.98 in 7.0 mi Calm Calm - N/A   Clear
1:34 AM 72.5 °F - 70.7 °F 94% 29.98 in 10.0 mi Calm Calm - N/A   Clear
1:56 AM 71.8 °F - 70.7 °F 96% 29.99 in 7.0 mi Calm Calm - N/A   Scattered Clouds
2:14 AM 72.1 °F - 70.9 °F 96% 29.98 in 7.0 mi Calm Calm - N/A   Scattered Clouds
2:34 AM 70.7 °F - 69.4 °F 96% 29.98 in 7.0 mi Calm Calm - N/A   Scattered Clouds
2:57 AM 70.3 °F - 69.8 °F 98% 29.97 in 5.0 mi SSW 3.5 mph - N/A   Scattered Clouds
3:13 AM 70.9 °F - 70.5 °F 99% 29.97 in 7.0 mi SSW 4.6 mph - N/A   Mostly Cloudy
3:29 AM 72.0 °F - 70.9 °F 96% 29.97 in 7.0 mi SSW 5.8 mph - N/A   Overcast
3:57 AM 70.7 °F - 70.0 °F 98% 29.96 in 5.0 mi Calm Calm - N/A   Overcast
4:14 AM 71.8 °F - 70.5 °F 96% 29.96 in 7.0 mi Calm Calm - N/A   Overcast
4:33 AM 71.1 °F - 70.5 °F 98% 29.95 in 7.0 mi Calm Calm - N/A   Overcast
4:57 AM 71.6 °F - 71.1 °F 98% 29.95 in 7.0 mi South 3.5 mph - N/A   Overcast
5:13 AM 70.9 °F - 70.7 °F 99% 29.93 in 5.0 mi Calm Calm - N/A   Overcast
5:34 AM 72.0 °F - 71.2 °F 98% 29.95 in 3.0 mi Calm Calm - 0.05 in Rain Light Rain
5:57 AM 70.2 °F - 67.8 °F 92% 29.94 in 1.2 mi NNW 5.8 mph 25.3 mph 0.51 in Rain Heavy Rain
6:13 AM 70.7 °F - 68.5 °F 93% 29.97 in 1.2 mi West 33.4 mph 41.4 mph 0.24 in Rain Heavy Rain
6:34 AM 70.5 °F - 69.1 °F 95% 29.94 in 10.0 mi WNW 5.8 mph - 0.52 in Rain Light Rain
6:57 AM 70.0 °F - 68.9 °F 96% 29.93 in 10.0 mi South 3.5 mph - 0.52 in   Scattered Clouds
7:14 AM 68.5 °F - 68.0 °F 98% 29.93 in 10.0 mi SE 5.8 mph - N/A   Clear
7:33 AM 69.1 °F - 68.7 °F 99% 29.95 in 10.0 mi SSE 5.8 mph - N/A Rain Light Rain
7:57 AM 69.8 °F - 68.9 °F 97% 29.95 in 10.0 mi South 4.6 mph - N/A Rain Rain
8:14 AM 70.2 °F - 69.6 °F 98% 29.95 in 5.0 mi SSE 5.8 mph - 0.02 in Rain Rain
8:33 AM 70.2 °F - 70.0 °F 99% 29.93 in 4.0 mi East 4.6 mph - 0.06 in Rain Light Rain
8:57 AM 70.9 °F - 70.9 °F 100% 29.93 in 3.0 mi SSE 5.8 mph - 0.06 in Rain Light Rain
9:14 AM 71.4 °F - 71.4 °F 100% 29.94 in 2.5 mi South 5.8 mph - N/A   Mostly Cloudy
9:34 AM 72.3 °F - 72.1 °F 99% 29.94 in 3.0 mi South 8.1 mph - N/A   Mostly Cloudy
9:56 AM 73.0 °F - 72.7 °F 99% 29.93 in 4.0 mi South 9.2 mph - N/A   Mostly Cloudy
10:14 AM 73.6 °F - 72.7 °F 97% 29.92 in 5.0 mi South 8.1 mph - N/A   Mostly Cloudy
10:33 AM 73.6 °F - 72.7 °F 97% 29.90 in 5.0 mi South 6.9 mph - N/A   Mostly Cloudy
10:57 AM 73.8 °F - 72.1 °F 95% 29.90 in 7.0 mi South 8.1 mph - N/A   Mostly Cloudy
11:14 AM 75.2 °F - 72.9 °F 92% 29.89 in 10.0 mi South 9.2 mph - N/A   Mostly Cloudy
11:33 AM 77.7 °F - 72.3 °F 83% 29.89 in 10.0 mi South 10.4 mph - N/A   Overcast
11:57 AM 79.0 °F - 72.1 °F 79% 29.88 in 10.0 mi South 11.5 mph - N/A   Mostly Cloudy
12:14 PM 80.8 °F 84.9 °F 71.8 °F 74% 29.87 in 10.0 mi South 11.5 mph 16.1 mph N/A   Scattered Clouds
12:33 PM 81.9 °F 86.6 °F 72.0 °F 72% 29.87 in 10.0 mi SSW 15.0 mph 20.7 mph N/A   Scattered Clouds
12:57 PM 83.5 °F 88.5 °F 71.6 °F 67% 29.85 in 10.0 mi SSW 15.0 mph 20.7 mph N/A   Scattered Clouds
1:13 PM 83.8 °F 88.6 °F 71.1 °F 65% 29.85 in 10.0 mi SSW 11.5 mph - N/A   Scattered Clouds
1:34 PM 84.9 °F 89.7 °F 70.7 °F 62% 29.84 in 10.0 mi SSW 13.8 mph 21.9 mph N/A   Mostly Cloudy
1:56 PM 84.6 °F 88.8 °F 70.0 °F 61% 29.83 in 10.0 mi SW 19.6 mph 26.5 mph N/A   Mostly Cloudy
2:14 PM 84.7 °F 88.8 °F 69.3 °F 60% 29.83 in 10.0 mi SSW 18.4 mph 27.6 mph N/A   Mostly Cloudy
2:33 PM 85.3 °F 89.4 °F 69.6 °F 59% 29.82 in 10.0 mi SSW 18.4 mph 23.0 mph N/A   Scattered Clouds
2:57 PM 84.6 °F 88.8 °F 69.8 °F 61% 29.82 in 10.0 mi SW 15.0 mph 21.9 mph N/A   Mostly Cloudy
3:14 PM 84.6 °F 88.5 °F 69.4 °F 60% 29.81 in 10.0 mi SW 15.0 mph 23.0 mph N/A   Scattered Clouds
3:34 PM 84.7 °F 88.8 °F 69.6 °F 60% 29.81 in 10.0 mi SW 18.4 mph - N/A   Scattered Clouds
3:57 PM 82.8 °F 86.9 °F 70.2 °F 66% 29.80 in 10.0 mi WSW 11.5 mph - N/A Rain Light Rain
4:13 PM 75.7 °F - 67.1 °F 74% 29.81 in 1.0 mi SW 36.8 mph 43.7 mph 0.13 in Rain Heavy Rain
4:34 PM 76.3 °F - 70.5 °F 82% 29.78 in 10.0 mi SSW 13.8 mph - 0.30 in   Scattered Clouds
4:56 PM 77.2 °F - 71.4 °F 82% 29.78 in 10.0 mi SW 8.1 mph - 0.30 in   Scattered Clouds
5:14 PM 76.5 °F - 72.0 °F 86% 29.78 in 10.0 mi WSW 5.8 mph - N/A Rain Light Rain
5:34 PM 76.5 °F - 72.0 °F 86% 29.77 in 10.0 mi WSW 8.1 mph - N/A Rain Light Rain
5:56 PM 75.6 °F - 71.4 °F 87% 29.78 in 10.0 mi WSW 11.5 mph 19.6 mph N/A Rain Light Rain
6:14 PM 74.7 °F - 71.8 °F 91% 29.78 in 10.0 mi SW 11.5 mph - 0.01 in Rain Light Rain
6:34 PM 73.9 °F - 70.9 °F 90% 29.79 in 10.0 mi SW 15.0 mph 24.2 mph 0.02 in Rain Light Rain
6:57 PM 73.2 °F - 69.6 °F 88% 29.79 in 10.0 mi WSW 11.5 mph - 0.02 in   Mostly Cloudy
7:14 PM 72.7 °F - 69.8 °F 91% 29.81 in 10.0 mi West 8.1 mph - N/A   Mostly Cloudy
7:34 PM 72.5 °F - 70.0 °F 92% 29.81 in 10.0 mi West 6.9 mph - N/A   Scattered Clouds
7:57 PM 71.8 °F - 69.8 °F 93% 29.81 in 10.0 mi West 10.4 mph 16.1 mph N/A   Overcast
8:13 PM 71.6 °F - 69.8 °F 94% 29.81 in 10.0 mi West 10.4 mph - N/A   Overcast
8:34 PM 71.8 °F - 70.0 °F 94% 29.80 in 10.0 mi WSW 10.4 mph 17.3 mph N/A   Mostly Cloudy
8:57 PM 71.8 °F - 70.0 °F 94% 29.81 in 10.0 mi West 16.1 mph - N/A   Mostly Cloudy
9:14 PM 71.8 °F - 69.8 °F 93% 29.82 in 10.0 mi WSW 13.8 mph 20.7 mph N/A   Mostly Cloudy
9:34 PM 72.0 °F - 69.1 °F 91% 29.82 in 10.0 mi West 21.9 mph - N/A   Overcast
9:57 PM 71.8 °F - 68.0 °F 88% 29.81 in 10.0 mi WSW 10.4 mph - N/A   Overcast
10:14 PM 71.2 °F - 68.2 °F 90% 29.81 in 10.0 mi West 9.2 mph - N/A   Overcast
10:33 PM 71.2 °F - 68.0 °F 89% 29.81 in 10.0 mi West 8.1 mph - N/A   Overcast
10:57 PM 70.9 °F - 68.4 °F 92% 29.81 in 10.0 mi WSW 9.2 mph - N/A   Overcast
11:14 PM - - - N/A% 29.81 in 10.0 mi WSW 8.1 mph - N/A   Overcast
11:34 PM 70.9 °F - 68.5 °F 92% 29.82 in 10.0 mi WSW 8.1 mph - N/A   Overcast
11:56 PM 70.7 °F - 68.2 °F 92% 29.83 in 10.0 mi West 10.4 mph - N/A   Overcast